Poplar Bluff, MO

7:08 PM CST on February 27, 2017 (GMT -0600)
Poplar Bluff Municipal

Weather History for KPOF - November, 2014

Change the Weather History Date:

Monday, November 10, 2014

  Actual Average Record
Temperature  
Mean Temperature 52 °F -  
Max Temperature 68 °F 61 °F 80 °F (1935)
Min Temperature 35 °F 37 °F 19 °F (1953)
Degree Days  
Heating Degree Days 14    
Growing Degree Days 2 (Base 50)    
Moisture  
Dew Point 40 °F    
Average Humidity 71    
Maximum Humidity 93    
Minimum Humidity 42    
Precipitation  
Precipitation 0.00 in - - ()
Sea Level Pressure  
Sea Level Pressure 29.79 in    
Wind  
Wind Speed 5 mph (South)    
Max Wind Speed 21 mph    
Max Gust Speed 33 mph    
Visibility 8 miles    
Events      
Averages and records for this station are not official NWS values.
T = Trace of Precipitation, MM = Missing Value Source: NWS Daily Summary

Daily Weather History Graph

Daily Weather History Graph

Search for Another Location

Airport or City:

Trip Planner

Search our weather history database for the weather conditions in past years. The results will help you decide how hot, cold, wet, or windy it might be!

Date:

Astronomy

Nov. 10, 2014 Rise Set
Actual Time 6:34 AM CST 4:55 PM CST
Civil Twilight 6:06 AM CST 5:23 PM CST
Nautical Twilight 5:35 AM CST 5:54 PM CST
Astronomical Twilight 5:05 AM CST 6:24 PM CST
Moon 8:24 PM CST (11/10) 9:55 AM CST (11/10)
Length of Visible Light 11h 16m
Length of Day
10h 21m
Waning Gibbous, 84% of the Moon is Illuminated
Nov 10
Waning Gibbous
Nov 14
Last Quarter
Nov 22
New
Nov 29
First Quarter
Dec 6
Full

Hourly Weather History & Observations

Time (CST) Temp. Windchill Dew Point Humidity Pressure Visibility Wind Dir Wind Speed Gust Speed Precip Events Conditions
12:53 AM 39.0 °F - 36.0 °F 89% 29.90 in 8.0 mi Calm Calm - N/A   Clear
1:44 AM 37.0 °F - 34.0 °F 89% 29.88 in 2.0 mi Calm Calm - N/A   Clear
1:53 AM 37.0 °F - 34.0 °F 89% 29.89 in 1.2 mi Calm Calm - N/A   Clear
2:00 AM 37.9 °F - 35.1 °F 89% 29.88 in 3.0 mi Calm Calm - N/A   Clear
2:27 AM 36.0 °F - 33.1 °F 89% 29.87 in 1.8 mi Calm Calm - N/A   Clear
2:40 AM 36.0 °F - 34.0 °F 93% 29.87 in 3.0 mi Calm Calm - N/A   Clear
2:53 AM 36.0 °F - 33.1 °F 89% 29.88 in 3.0 mi Calm Calm - N/A   Clear
2:58 AM 35.1 °F - 33.1 °F 92% 29.87 in 1.5 mi Calm Calm - N/A   Clear
3:20 AM 37.0 °F - 34.0 °F 89% 29.86 in 3.0 mi Calm Calm - N/A   Clear
3:53 AM 36.0 °F - 33.1 °F 89% 29.87 in 4.0 mi Calm Calm - N/A   Clear
4:53 AM 39.0 °F - 36.0 °F 89% 29.86 in 9.0 mi Calm Calm - N/A   Clear
5:53 AM 42.1 °F 39.2 °F 39.0 °F 89% 29.86 in 10.0 mi SSE 4.6 mph - N/A   Clear
6:53 AM 43.0 °F 40.3 °F 39.0 °F 86% 29.86 in 10.0 mi South 4.6 mph - N/A   Clear
7:53 AM 48.9 °F - 43.0 °F 80% 29.85 in 10.0 mi South 8.1 mph - N/A   Clear
8:53 AM 54.0 °F - 45.0 °F 72% 29.84 in 10.0 mi South 10.4 mph - N/A   Clear
9:53 AM 59.0 °F - 45.0 °F 60% 29.83 in 10.0 mi South 16.1 mph 24.2 mph N/A   Clear
10:53 AM 62.1 °F - 45.0 °F 53% 29.81 in 10.0 mi SSW 20.7 mph 29.9 mph N/A   Unknown
11:53 AM 64.9 °F - 45.0 °F 48% 29.76 in 10.0 mi South 19.6 mph 33.4 mph N/A   Unknown
12:53 PM 68.0 °F - 44.1 °F 42% 29.70 in 10.0 mi South 15.0 mph 26.5 mph N/A   Clear
1:53 PM 68.0 °F - 44.1 °F 42% 29.69 in 10.0 mi South 20.7 mph 32.2 mph N/A   Clear
2:53 PM 68.0 °F - 46.9 °F 47% 29.67 in 10.0 mi South 16.1 mph 26.5 mph N/A   Clear
3:53 PM 66.9 °F - 43.0 °F 42% 29.65 in 10.0 mi South 18.4 mph 27.6 mph N/A   Clear
4:53 PM 64.0 °F - 45.0 °F 50% 29.67 in 10.0 mi South 12.7 mph - N/A   Clear
5:53 PM 61.0 °F - 45.0 °F 56% 29.69 in 10.0 mi South 10.4 mph - N/A   Clear
6:53 PM 61.0 °F - 46.0 °F 58% 29.69 in 10.0 mi South 12.7 mph - N/A   Clear
7:53 PM 61.0 °F - 45.0 °F 56% 29.69 in 10.0 mi South 12.7 mph - N/A   Clear
8:53 PM 59.0 °F - 44.1 °F 58% 29.71 in 10.0 mi South 10.4 mph - N/A   Clear
9:53 PM 55.0 °F - 43.0 °F 64% 29.74 in 10.0 mi Calm Calm - N/A   Clear
10:53 PM 55.0 °F - 43.0 °F 64% 29.75 in 10.0 mi South 6.9 mph - N/A   Clear
11:53 PM 55.0 °F - 43.0 °F 64% 29.75 in 10.0 mi SSE 6.9 mph - N/A   Clear